Regional Weather Roundup
Issued by NWS

Home | Current Version | Previous Version | Text Only | Print | Product List | Glossary Off
Versions: 1 2 3 4 5 6 7 8 9 10 11 12 13 14 15 16 17 18 19 20 21 22 23 24 25 26 27 28 29 30 31 32 33 34 35 36 37 38 39 40 41 42 43 44 45 46 47 48 49 50

000
ASUS43 KMPX 280110
RWRMN
WEATHER ROUNDUP FOR MINNESOTA
NATIONAL WEATHER SERVICE TWIN CITIES/CHANHASSEN MN
800 PM CDT THU AUG 27 2015


NOTE: "FAIR" INDICATES FEW OR NO CLOUDS BELOW 12,000 FEET WITH NO
SIGNIFICANT WEATHER AND/OR OBSTRUCTIONS TO VISIBILITY. N/A MEANS
CURRENT SKY AND/OR WEATHER CONDITIONS ARE NOT AVAILABLE.

MNZ060>063-068>070-280200-
   Twin Cities Metro

CITY           SKY/WX    TMP DP  RH WIND       PRES   REMARKS
TWIN CITIES    MOCLDY    71  58  63 VRB7      30.01S
ST PAUL        MOCLDY    68  59  73 S9        30.01F
CRYSTAL        MOCLDY    71  59  65 S9        29.99F
BLAINE         MOCLDY    72  61  68 S9        30.00F
LAKEVILLE      MOCLDY    64  61  88 CALM      30.02S
EDEN PRAIRIE   MOCLDY    68  59  73 SE10      30.00S
SOUTH ST PAUL  MOCLDY    70  58  66 SE5       30.01S
LAKE ELMO      FAIR      68  61  77 S7        30.03S
$$
MNZ001>005-007-008-013>017-022>024-027-028-280200-
   Northwest Minnesota

CITY           SKY/WX    TMP DP  RH WIND       PRES   REMARKS
BEMIDJI        PTCLDY    70  64  82 S5        29.94F
HALLOCK        CLEAR     73  61  64 S5        29.89S
ROSEAU         CLEAR     70  63  78 CALM      29.91F
WARROAD        CLEAR     66  63  88 CALM      29.92F
THIEF RVR FALL PTCLDY   N/A N/A N/A SW3       29.91F
CROOKSTON      PTCLDY    72  64  78 S5        29.91F
FOSSTON        MOCLDY    70  63  78 S5        29.94S
DETROIT LAKES  CLOUDY    70  64  83 CALM      29.95S
MOORHEAD       MOCLDY    75  66  73 CALM      29.92S
PARK RAPIDS    CLOUDY    72  64  76 S6        29.95F
MAHNOMEN       MOCLDY    71  66  83 CALM      29.92F
$$
MNZ006-009>011-018-025>026-280200-
   North Central Minnesota

CITY           SKY/WX    TMP DP  RH WIND       PRES   REMARKS
BAUDETTE       CLEAR     69  61  75 S6        29.92F
FLAG ISLAND    CLEAR     70  63  78 CALM      29.90F HAZE
INTL FALLS     MOCLDY    68  60  75 SE3       29.94F
WASKISH        CLOUDY    72  64  78 CALM      29.94S
BIG FORK       CLOUDY    70  63  78 S3        29.97S
LONGVILLE      CLOUDY    68  64  88 CALM      29.96S
GRAND RAPIDS     N/A     70  61  73 S7        29.98S
CRANE LAKE     PTCLDY    63  61  94 CALM      29.98S
ORR            MOCLDY    66  57  72 CALM      29.95F
COOK           CLOUDY    68  61  77 CALM      29.98S
WALKER         CLOUDY    69  64  85 CALM      29.95S
$$
MNZ012-019>021-037-280200-
   Northeast Minnesota

CITY           SKY/WX    TMP DP  RH WIND       PRES   REMARKS
DULUTH         PTCLDY    60  52  74 SE6       30.00F
ELY            PTCLDY    66  57  72 S5        29.99S
HIBBING        CLOUDY    68  60  75 SE5       29.98F
EVELETH        MOCLDY    66  57  72 S5        30.00S
DULUTH HARBOR  MOCLDY    57  54  88 NE3       30.01S
TWO HARBORS    PTCLDY    63  55  77 CALM      30.00S
SILVER BAY     MOCLDY    63  54  72 CALM      30.00S
GRAND MARAIS     N/A     56  51  84 CALM      30.01F
G MARAIS ARPRT CLEAR     54  48  82 S3        30.04F
$$
MNZ029>031-032-039>041-046>048-054>057-064-280200-
   West Central Minnesota

CITY           SKY/WX    TMP DP  RH WIND       PRES   REMARKS
FERGUS FALLS   CLOUDY    72  64  78 SE3       29.93S
WHEATON        CLOUDY    66  64  94 SE5       29.94F
MORRIS         CLOUDY    72  70  94 SE6       29.94S
ALEXANDRIA     CLOUDY    71  66  84 S6        29.97F
ELBOW LAKE     FAIR      70  66  88 SE3       29.93F
WADENA         CLOUDY    70  63  78 S3        29.96R
GLENWOOD       CLOUDY    70  66  88 S7        29.98R
APPLETON       CLOUDY    72  66  83 SE7       29.94S
BENSON         CLOUDY    70  64  83 S6        29.96S
ORTONVILLE     CLOUDY    72  68  88 SE3       29.93F
MADISON        CLOUDY    70  66  88 SE5       29.95S
WILLMAR        FAIR      68  64  88 SE5       29.99S
$$
MNZ033>034-036-042>043-049>051-058-059-280200-
   Central Minnesota

CITY           SKY/WX    TMP DP  RH WIND       PRES   REMARKS
ST CLOUD       MOCLDY    68  62  81 S7        29.98S
SAUK CENTRE    FAIR      68  64  89 S6        29.97S
PAYNESVILLE    CLOUDY    67  62  84 E7        29.99R
AITKIN         CLOUDY    70  63  78 S5        29.97R
PINE RIVER     CLOUDY    70  63  78 CALM      29.99F
BRAINERD       CLOUDY    69  63  81 SE3       29.97F
STAPLES        CLOUDY    70  63  78 CALM      29.96S
LONG PRAIRIE   FAIR      68  64  88 S6        29.97S
LITTLE FALLS   CLOUDY    68  61  77 S6        29.97S
LITCHFIELD     CLOUDY    68  64  88 SE3       29.99F
BUFFALO        MOCLDY    68  59  74 SE5       30.00S
MAPLE LAKE     MOCLDY    67  63  86 S3        30.00S
$$
MNZ037-044-045-052-053-280200-
   East Central Minnesota

CITY           SKY/WX    TMP DP  RH WIND       PRES   REMARKS
PRINCETON      CLOUDY    72  63  73 S5        29.99S
MORA           CLOUDY    64  59  82 CALM      30.01S
CAMBRIDGE      CLOUDY    72  61  68 CALM      29.98S
RUSH CITY      CLOUDY    67  61  81 SE5       30.00S
MOOSE LAKE     MOCLDY    66  59  77 S3        29.97F
HINCKLEY       MOCLDY    68  61  77 SE3       29.99F
CLOQUET        MOCLDY    61  54  77 E3        30.00S
MCGREGOR       CLOUDY    68  61  77 SE5       29.99S
$$
MNZ071>073-080-081-089-090-097-098-280200-
   Southwest Minnesota

CITY           SKY/WX    TMP DP  RH WIND       PRES   REMARKS
MONTEVIDEO     CLOUDY    68  63  83 CALM      29.98S
GRANITE FALLS  CLOUDY    67  64  93 CALM      29.97F
CANBY          CLOUDY    73  65  78 CALM      29.95S
MARSHALL       CLOUDY    72  63  73 S5        29.98F
REDWOOD FALLS  CLOUDY    68  65  90 S10       29.96F
OLIVIA         CLOUDY    64  61  88 SE5       29.97S
PIPESTONE      CLOUDY    70  64  83 SE10      29.97F
WINDOM         CLOUDY    66  61  82 S13G20    29.98F
WORTHINGTON    CLOUDY    64  61  88 SE8       30.00F
JACKSON        CLOUDY    64  63  94 S8        30.02S
TRACY          CLOUDY    69  65  88 S8        29.97F
SLAYTON        CLOUDY    66  65  96 S10       30.00F
$$
MNZ065>067-074>077-082>085-091>093-280200-
   South Central Minnesota

CITY           SKY/WX    TMP DP  RH WIND       PRES   REMARKS
MANKATO        CLOUDY    64  59  82 SE10      30.00S
NEW ULM        CLOUDY    66  63  88 SE6       29.99S
ST JAMES       CLOUDY    68  63  83 CALM      29.99R
FAIRMONT       MOCLDY    66  57  72 SE6       30.01S
GLENCOE        CLOUDY    67  64  88 CALM      29.99S
FARIBAULT      CLOUDY    66  61  82 SE7       30.02F
OWATONNA       CLOUDY    66  59  77 E5        30.03F
WASECA         CLOUDY    63  59  88 MISG      30.04S
ALBERT LEA     LGT RAIN  66  59  77 S8        30.03S
$$
MNZ078>079-086>088-094>096-280200-
   Southeast Minnesota

CITY           SKY/WX    TMP DP  RH WIND       PRES   REMARKS
ROCHESTER      CLOUDY    64  59  83 SE7       30.06F
RED WING       MOCLDY    70  59  68 S5        30.03S
STANTON        MOCLDY    67  59  75 CALM      30.01F
DODGE CENTER   MOCLDY    64  59  82 SE3       30.05F
WINONA         CLOUDY    70  61  73 CALM      30.06R
AUSTIN         LGT RAIN  66  61  82 SE3       30.04S
PRESTON        CLOUDY    65  59  79 S5        30.07F
$$
ABBREVIATIONS USED IN REMARKS
   TC - TEMPERATURES IN CELSIUS
  WCI - WIND CHILL INDEX
   HX - HEAT INDEX
  VSB - VISIBILITY
$$



USA.gov is the U.S. government's official web portal to all federal, state and local government web resources and services.